EW1940 Weather Reports


Display with metric or nautical units.
time (UTC)temp
F
wind
direction
speed
MPH
gust
MPH
rain 1hr
in
rain 24hr
in
rain mn
in
humidity
%
barometer
mb
20260510153018 54 45 6.0 13.0 0.00 0.18 0.18 83 1014.0
20260510152016 54 45 6.0 13.0 0.00 0.18 0.18 85 1014.1
20260510151016 54 45 6.0 13.0 0.00 0.18 0.18 86 1014.2
20260510150016 54 68 4.0 10.0 0.00 0.18 0.18 86 1014.3
20260510145036 54 45 7.0 14.0 0.00 0.18 0.18 86 1014.4
20260510144016 54 45 5.0 13.0 0.00 0.18 0.18 87 1014.6
20260510143038 54 45 6.0 14.0 0.01 0.18 0.18 88 1014.7
20260510142016 53 45 5.0 10.0 0.01 0.18 0.18 88 1014.7
20260510141016 53 45 5.0 11.0 0.01 0.18 0.18 89 1014.7
20260510140018 53 45 3.0 8.0 0.01 0.18 0.18 89 1014.8
20260510135016 52 23 6.0 16.0 0.01 0.18 0.18 88 1014.7
20260510134016 52 45 6.0 11.0 0.01 0.18 0.18 88 1014.9
20260510133016 52 45 6.0 14.0 0.00 0.17 0.17 88 1014.9
20260510132017 52 45 6.0 12.0 0.00 0.17 0.17 88 1015.0
20260510131016 52 45 5.0 13.0 0.01 0.17 0.17 89 1015.1
20260510130056 52 45 7.0 15.0 0.05 0.17 0.17 89 1015.1
20260510125017 52 45 4.0 10.0 0.06 0.17 0.17 89 1015.1
20260510124016 52 23 6.0 12.0 0.06 0.17 0.17 89 1015.0
20260510123017 52 45 6.0 11.0 0.08 0.17 0.17 89 1014.9
20260510122016 53 23 7.0 14.0 0.11 0.17 0.17 88 1014.9
20260510121018 53 0 6.0 12.0 0.11 0.17 0.17 88 1014.9
20260510120017 53 23 7.0 14.0 0.07 0.13 0.13 87 1015.2
20260510115038 53 45 6.0 10.0 0.06 0.12 0.12 87 1015.5
20260510114016 53 45 8.0 13.0 0.06 0.11 0.11 87 1015.6
20260510113018 53 45 5.0 12.0 0.06 0.09 0.09 86 1015.8
20260510112038 53 45 3.0 8.0 0.04 0.06 0.06 85 1016.0
20260510111017 53 45 4.0 9.0 0.03 0.06 0.06 85 1015.9
20260510110039 53 45 5.0 12.0 0.03 0.06 0.06 85 1015.9
20260510105016 53 23 5.0 12.0 0.03 0.06 0.06 85 1016.0
20260510104016 53 45 4.0 14.0 0.03 0.05 0.05 84 1016.0
20260510103016 53 45 5.0 10.0 0.02 0.03 0.03 84 1016.1
20260510102016 53 45 5.0 9.0 0.02 0.02 0.02 84 1016.0
20260510101017 53 68 3.0 7.0 0.02 0.02 0.02 84 1016.0
20260510100016 53 45 6.0 10.0 0.02 0.02 0.02 82 1016.0
20260510095019 53 45 6.0 15.0 0.02 0.02 0.02 82 1015.9
20260510094017 53 45 6.0 15.0 0.02 0.02 0.02 81 1015.7
20260510093016 53 45 7.0 14.0 0.02 0.02 0.02 80 1015.8
20260510092016 53 45 8.0 15.0 0.01 0.01 0.01 80 1015.8
20260510091016 54 45 6.0 11.0 0.00 0.00 0.00 79 1015.9
20260510090019 54 45 6.0 15.0 0.00 0.00 0.00 78 1016.0
20260510085017 54 45 5.0 13.0 0.00 0.00 0.00 77 1016.0
20260510084016 54 45 6.0 12.0 0.00 0.00 0.00 77 1016.0
20260510083016 54 23 7.0 12.0 0.00 0.00 0.00 76 1016.0
20260510082037 54 45 5.0 11.0 0.00 0.00 0.00 75 1016.0
20260510081016 54 45 5.0 12.0 0.00 0.00 0.00 73 1016.0
20260510080016 54 45 5.0 15.0 0.00 0.00 0.00 74 1016.0
20260510075016 54 45 7.0 14.0 0.00 0.00 0.00 74 1015.9
20260510074015 54 45 7.0 14.0 0.00 0.00 0.00 76 1015.8
20260510073015 53 45 7.0 16.0 0.00 0.00 0.00 76 1015.8
20260510072015 53 45 6.0 13.0 0.00 0.00 0.00 77 1015.8
20260510071017 53 45 6.0 11.0 0.00 0.00 0.00 77 1015.8
20260510070017 53 45 6.0 15.0 0.00 0.00 0.00 77 1015.9
20260510065015 53 45 6.0 14.0 0.00 0.00 0.00 77 1015.9
20260510064016 53 45 7.0 13.0 0.00 0.00 0.00 78 1015.9
20260510063016 53 23 8.0 16.0 0.00 0.00 0.00 77 1016.0
20260510062057 52 45 5.0 14.0 0.00 0.00 0.00 77 1016.0
20260510061017 52 45 7.0 14.0 0.00 0.00 0.00 77 1016.1
20260510060017 52 45 4.0 9.0 0.00 0.00 0.00 77 1016.2
20260510055017 52 45 5.0 11.0 0.00 0.00 0.00 77 1016.1
20260510054015 52 23 6.0 14.0 0.00 0.00 0.00 77 1016.1
20260510053037 52 45 6.0 15.0 0.00 0.00 0.00 77 1016.1
20260510052015 52 45 5.0 10.0 0.00 0.00 0.00 77 1016.0
20260510051015 52 68 6.0 14.0 0.00 0.00 0.00 77 1016.0
20260510050015 52 45 6.0 12.0 0.00 0.00 0.00 77 1015.9
20260510045038 52 45 8.0 16.0 0.00 0.00 0.00 76 1015.9
20260510044017 53 45 5.0 13.0 0.00 0.00 0.00 76 1015.9
20260510043037 53 45 7.0 16.0 0.00 0.00 0.00 75 1015.8
20260510042019 53 23 7.0 13.0 0.00 0.00 0.00 74 1015.9
20260510041019 53 23 6.0 12.0 0.00 0.00 0.00 74 1015.9
20260510040017 53 45 9.0 15.0 0.00 0.00 0.00 73 1016.0
20260510035039 54 45 6.0 12.0 0.00 0.00 0.00 73 1016.0
20260510034018 54 45 5.0 10.0 0.00 0.00 0.00 72 1016.0
20260510033019 54 45 6.0 14.0 0.00 0.00 0.00 72 1016.1
20260510032017 54 45 6.0 12.0 0.00 0.00 0.00 71 1016.2
20260510031019 54 45 7.0 15.0 0.00 0.00 0.00 71 1016.3
20260510030017 54 45 6.0 11.0 0.00 0.00 0.00 71 1016.4
20260510025036 55 45 7.0 14.0 0.00 0.00 0.00 71 1016.2
20260510024017 55 45 6.0 11.0 0.00 0.00 0.00 71 1016.2
20260510023041 55 45 5.0 11.0 0.00 0.00 0.00 70 1016.1
20260510022057 55 45 4.0 8.0 0.00 0.00 0.00 69 1016.2
20260510021017 55 45 5.0 11.0 0.00 0.00 0.00 68 1016.3
20260510020017 55 45 6.0 14.0 0.00 0.00 0.00 67 1016.3
20260510015017 55 45 5.0 13.0 0.00 0.00 0.00 65 1016.3
20260510014037 55 45 4.0 9.0 0.00 0.00 0.00 65 1016.4
20260510013019 56 45 5.0 10.0 0.00 0.00 0.00 64 1016.5
20260510012017 56 45 4.0 8.0 0.00 0.00 0.00 63 1016.4
20260510011059 56 45 4.0 9.0 0.00 0.00 0.00 63 1016.4
20260510010017 56 45 3.0 7.0 0.00 0.00 0.00 63 1016.4
20260510005018 56 90 3.0 6.0 0.00 0.00 0.00 62 1016.4
20260510004017 56 45 3.0 7.0 0.00 0.00 0.00 60 1016.4
20260510003017 57 90 3.0 8.0 0.00 0.00 0.00 59 1016.4
20260510002017 57 68 3.0 8.0 0.00 0.00 0.00 57 1016.5
20260510001019 57 68 2.0 4.0 0.00 0.00 0.00 57 1016.5
20260510000038 57 90 3.0 7.0 0.00 0.00 0.00 55 1016.4
20260509235037 57 90 4.0 13.0 0.00 0.00 0.00 55 1016.3
20260509234017 57 90 3.0 8.0 0.00 0.00 0.00 54 1016.2
20260509233017 57 45 3.0 9.0 0.00 0.00 0.00 52 1016.3
20260509232017 58 68 3.0 7.0 0.00 0.00 0.00 52 1016.3
20260509231017 58 45 5.0 11.0 0.00 0.00 0.00 50 1016.2
20260509230017 58 45 6.0 12.0 0.00 0.00 0.00 50 1016.3
20260509225017 58 45 3.0 9.0 0.00 0.00 0.00 49 1016.3
20260509223038 58 45 4.0 12.0 0.00 0.00 0.00 48 1016.2
20260509222057 59 45 4.0 9.0 0.00 0.00 0.00 47 1016.2
20260509221019 59 90 5.0 10.0 0.00 0.00 0.00 46 1016.2
20260509220018 59 68 4.0 10.0 0.00 0.00 0.00 45 1016.2
20260509215037 59 45 5.0 12.0 0.00 0.00 0.00 45 1016.1
20260509214017 60 68 5.0 10.0 0.00 0.00 0.00 46 1016.1
20260509213017 60 45 4.0 11.0 0.00 0.00 0.00 47 1016.1
20260509212017 60 45 5.0 11.0 0.00 0.00 0.00 47 1016.1
20260509211016 60 45 5.0 12.0 0.00 0.00 0.00 48 1016.2
20260509210038 60 45 4.0 10.0 0.00 0.00 0.00 48 1016.1
20260509205018 60 45 4.0 11.0 0.00 0.00 0.00 48 1016.0
20260509204017 60 45 4.0 10.0 0.00 0.00 0.00 48 1015.9
20260509203017 61 45 5.0 16.0 0.00 0.00 0.00 47 1015.7
20260509202018 61 45 5.0 11.0 0.00 0.00 0.00 48 1015.5
20260509201017 61 45 4.0 13.0 0.00 0.00 0.00 53 1015.4
20260509200016 62 45 5.0 10.0 0.00 0.00 0.00 55 1015.2
20260509195016 62 68 3.0 9.0 0.00 0.00 0.00 56 1015.3
20260509194017 63 45 2.0 5.0 0.00 0.00 0.00 56 1015.2
20260509193017 64 45 3.0 5.0 0.00 0.00 0.00 55 1015.2
20260509192018 64 45 3.0 8.0 0.00 0.00 0.00 53 1015.2
20260509191018 65 45 3.0 6.0 0.00 0.00 0.00 53 1015.3
20260509190017 66 45 2.0 7.0 0.00 0.00 0.00 53 1015.2
20260509185018 66 68 4.0 11.0 0.00 0.00 0.00 52 1015.0
20260509184038 67 68 4.0 13.0 0.00 0.00 0.00 52 1014.9
20260509183016 67 68 3.0 10.0 0.00 0.00 0.00 52 1014.8
20260509182039 67 45 5.0 11.0 0.00 0.00 0.00 51 1014.9
20260509181016 68 45 7.0 17.0 0.00 0.00 0.00 50 1014.8
20260509180018 69 45 5.0 11.0 0.00 0.00 0.00 50 1014.7
20260509175020 69 45 5.0 10.0 0.00 0.00 0.00 50 1014.6
20260509174018 70 68 3.0 8.0 0.00 0.00 0.00 49 1014.7
20260509173017 70 113 2.0 6.0 0.00 0.00 0.00 50 1014.6
20260509172016 71 113 4.0 8.0 0.00 0.00 0.00 49 1014.6
20260509171018 71 113 6.0 11.0 0.00 0.00 0.00 47 1014.5
20260509170017 71 113 5.0 11.0 0.00 0.00 0.00 48 1014.6
20260509165058 71 113 5.0 9.0 0.00 0.00 0.00 47 1014.6
20260509164016 72 113 5.0 10.0 0.00 0.00 0.00 46 1014.7
20260509163016 72 135 5.0 12.0 0.00 0.00 0.00 45 1014.7
20260509162016 72 113 8.0 15.0 0.00 0.00 0.00 45 1014.6
20260509161018 73 113 7.0 13.0 0.00 0.00 0.00 44 1014.7
20260509160016 73 113 8.0 14.0 0.00 0.00 0.00 44 1014.7
20260509155036 73 90 5.0 11.0 0.00 0.00 0.00 45 1014.7
20260509154016 73 113 6.0 13.0 0.00 0.00 0.00 46 1014.8